E8220 Weather Reports


Display with metric or nautical units.
time (UTC)temp
F
wind
direction
speed
MPH
gust
MPH
rain 1hr
in
rain 24hr
in
rain mn
in
humidity
%
barometer
mb
20260507123351 50 0.0 0.0 0.00 0.00 0.00 91 1021.7
20260507120318 50 0.0 0.0 0.00 0.00 0.00 90 1022.0
20260507110234 51 0.0 0.0 0.00 0.00 0.00 89 1022.2
20260507103144 52 0.0 0.0 0.00 0.00 0.00 90 1022.2
20260507100206 52 0.0 0.0 0.00 0.00 0.00 90 1022.3
20260507093214 52 0.0 0.0 0.00 0.00 0.00 89 1022.3
20260507090316 52 0.0 0.0 0.00 0.00 0.00 89 1022.3
20260507083338 52 0.0 0.0 0.00 0.00 0.00 89 1022.3
20260507080237 52 0.0 0.0 0.00 0.00 0.00 89 1022.2
20260507073149 52 0.0 0.0 0.00 0.00 0.00 89 1022.1
20260507070119 53 0.0 0.0 0.00 0.00 0.00 88 1021.9
20260507063026 53 0.0 0.0 0.00 0.00 0.00 87 1021.8
20260507060106 54 0.0 0.0 0.00 0.00 0.00 85 1022.0
20260507045930 55 0.0 0.0 0.00 0.00 0.00 84 1022.1
20260507042829 55 0.0 0.0 0.00 0.00 0.00 83 1022.0
20260507035736 55 0.0 0.0 0.00 0.00 0.00 82 1021.8
20260507025534 56 0.0 0.0 0.00 0.00 0.00 79 1021.6
20260507022422 56 0.0 0.0 0.00 0.00 0.00 78 1021.5
20260507015411 57 0.0 0.0 0.00 0.00 0.00 77 1021.4
20260507012313 57 0.0 0.0 0.00 0.00 0.00 77 1021.5
20260507005300 57 0.0 0.0 0.00 0.00 0.00 76 1021.6
20260507002325 58 0.0 0.0 0.00 0.00 0.00 74 1021.6
20260506235329 57 0.0 0.0 0.00 0.00 0.00 75 1021.6
20260506232306 57 0.0 0.0 0.00 0.00 0.00 76 1021.6
20260506225136 57 0.0 0.0 0.00 0.00 0.00 78 1021.6
20260506222045 57 0.0 0.0 0.00 0.00 0.00 79 1021.9
20260506215058 57 0.0 0.0 0.00 0.00 0.00 81 1022.0
20260506212009 57 0.0 0.0 0.00 0.00 0.00 80 1022.0
20260506204836 58 0.0 0.0 0.00 0.00 0.00 80 1021.7
20260506201757 58 0.0 0.0 0.00 0.00 0.00 79 1021.8
20260506194826 56 0.0 0.0 0.00 0.00 0.00 83 1021.5
20260506184622 57 0.0 0.0 0.00 0.00 0.00 83 1021.5
20260506181745 56 0.0 0.0 0.00 0.00 0.00 87 1021.3
20260506174817 56 0.0 0.0 0.00 0.00 0.00 88 1020.9
20260506171824 55 0.0 0.0 0.00 0.00 0.00 89 1021.3
20260506164737 55 0.0 0.0 0.00 0.00 0.00 90 1021.1
20260506161844 55 0.0 0.0 0.00 0.00 0.00 91 1020.8
20260506154839 54 0.0 0.0 0.00 0.00 0.00 92 1020.5
20260506151903 54 0.0 0.0 0.00 0.00 0.00 93 1020.9
20260506144855 53 0.0 0.0 0.00 0.00 0.00 94 1020.7
20260506141948 53 0.0 0.0 0.00 0.00 0.00 94 1020.4
20260506134939 53 0.0 0.0 0.00 0.00 0.00 94 1020.6
20260506132028 52 0.0 0.0 0.00 0.00 0.00 94 1020.2
20260506125032 52 0.0 0.0 0.00 0.00 0.00 94 1019.9